STARLINK-2285, 48019

Orbit data source: Space-Track

STARLINK-2285, 48019 is a payload satellite owned by SpaceX/Seattle (US) in LEO that was launched on Wed, 24 Mar 2021 UTC via an FALCON 9 launch vehicle from the Air Force Eastern Test Range (AFETR). Payload-class satellites include a variety of spacecraft equipped with specific instruments for various scientific and technological missions. These include communications satellites like Starlink; space stations such as the ISS; scientific satellites like the Hubble; Earth observation satellites from companies like Planet Labs, Umbra, and HawkEye 360; GPS; miniature CubeSats for education and research; and military/defense satellites.

Loading next visibility...
Identifier
48019, 2021-024AU
Orbit
LEO
Country
Flag of USUS
Related business
Manufacturer
SpaceX/Seattle
Mission
Operational Commercial Communications
Bus & Motor
STARLINK, Unknown motor
Mass
260 kg wet, ~248 kg dry
Launch date (UTC)
2021-03-24 (5 years ago)
Launch vehicle
FALCON 9
Launch site
Air Force Eastern Test Range (AFETR)
Object type
Payload
Rocket body
Debris
Shape & HBR
Box + 1 Pan, 10.1 m
Radar Cross Section
13.562 m², Large (>1 m²)

Expand to show TLE details & history
Last TLE update: 18 hours ago

TLE from 18 hours ago
0 STARLINK-2285
1 48019U 21024AU  26175.28535058  .00002160  00000-0  81341-4 0  9998
2 48019  53.1576 170.9538 0001518  96.3419 263.7756 15.31706105291255
Epoch: 2026-06-24T06:50Z
TLE epoch observation values (Epoch: 2026-06-24T06:50:54.290Z)
Latitude
0.00006°
Longitude
155.78288°
Altitude
471.735 km
Speed
7.631 km/s
True Right ascension
11h 23m 48s
True Declination
0° 00' 00"
Sunlit
Object was in daylight at epoch
Visualization orbit readout
Latitude
Unknown
Longitude
Unknown
Altitude
Unknown
Speed
Unknown
Apparent Right ascension
Unknown
Apparent Declination
Unknown
Sunlit
N/A
Visualization observer readout
Local Sidereal Time
11:47:59
Azimuth
Unknown
Elevation
Unknown
Doppler factor
Unknown
Orbital elements
Apogee altitude
472.018 km
Perigee altitude
469.939 km
Semi-major axis
6,849.116 km
Eccentricity
0.00015
Inclination
53.1576°
RAAN
170.9538°
Arg. of periapsis
96.3419°
True anomaly
263.75831°
Mean anomaly
263.7756°
Eccentric anomaly
263.76695°
Mean motion
3.82905 °/min
Orbital period
94.02 mins
BSTAR
0.000081341
Loading maneuver chart data...
Computing Atmospheric mass density...

Documentation

Showing up to 5 results
|